Waarnemingen

Advertentie
Mijn weer
St-Etienne Boutheon, Frankrijk (7475): temperatuur & dauwpunt: 08.07.2020 04:00:00 - 14.07.2020 04:00:00 (CEST)St-Etienne Boutheon, Frankrijk (7475): temperatuur 5cm: 08.07.2020 04:00:00 - 14.07.2020 04:00:00 (CEST)St-Etienne Boutheon, Frankrijk (7475): temperatuur -20cm & temperatuur -100cm: 08.07.2020 04:00:00 - 14.07.2020 04:00:00 (CEST)St-Etienne Boutheon, Frankrijk (7475): windsnelheid & windstoten: 08.07.2020 04:00:00 - 14.07.2020 04:00:00 (CEST)St-Etienne Boutheon, Frankrijk (7475): windrichting: 08.07.2020 04:00:00 - 14.07.2020 04:00:00 (CEST)St-Etienne Boutheon, Frankrijk (7475): luchtdruk: 08.07.2020 04:00:00 - 14.07.2020 04:00:00 (CEST)St-Etienne Boutheon, Frankrijk (7475): zicht: 08.07.2020 04:00:00 - 14.07.2020 04:00:00 (CEST)St-Etienne Boutheon, Frankrijk (7475): Zonneschijnduur: 08.07.2020 04:00:00 - 14.07.2020 04:00:00 (CEST)St-Etienne Boutheon, Frankrijk (7475): neerslag: 08.07.2020 04:00:00 - 14.07.2020 04:00:00 (CEST)
Datum & Tijd tt [°C] td [°C] tt 5cm [°C] tt -20cm [°C] tt -100cm [°C] ff [km/u] ff [kn] fx [km/u] fx [kn] dd ppp [hPa] vv [km] sd [min] rr [mm]
14.07.2020 04:00:00 10,5 6,3 6,5 23,0 19,0 4 2 8 4 ZO 1019,1 58 0 0,0
14.07.2020 03:00:00 11,7 6,0 6,4 23,4 19,0 6 3 10 5 ZZO 1019,2 60 0 0,0
14.07.2020 02:00:00 13,7 6,5 6,8 23,8 19,0 3 2 8 5 Z 1019,1 60 0 0,0
14.07.2020 01:00:00 14,0 6,8 8,3 24,2 19,0 5 3 8 4 Z 1019,4 60 0 0,0
14.07.2020 00:00:00 15,6 6,8 9,4 24,6 19,0 5 3 8 5 ZZO 1019,0 60 0 0,0
13.07.2020 23:00:00 18,4 5,9 9,4 24,9 19,0 6 3 9 5 W 1018,7 58 0 0,0
13.07.2020 22:00:00 20,3 4,3 12,7 25,2 19,0 4 2 16 9 ONO 1018,1 1,4 0 0,0
13.07.2020 21:00:00 23,9 3,8 20,8 25,3 19,0 10 6 29 16 N 1017,1 46 42 0,0
13.07.2020 20:00:00 25,5 2,2 25,2 25,3 19,0 21 11 34 18 NNO 1016,9 30 60 0,0
13.07.2020 19:00:00 26,6 3,1 30,4 25,1 19,0 22 12 36 19 N 1016,7 31 60 0,0
13.07.2020 18:00:00 27,0 3,5 32,9 24,6 19,0 22 12 36 19 N 1016,9 28 60 0,0
13.07.2020 17:00:00 27,2 4,3 34,0 24,0 19,0 16 8 37 20 N 1017,2 29 60 0,0
13.07.2020 16:00:00 26,8 5,7 35,5 23,3 19,0 16 9 37 20 N 1017,8 32 60 0,0
13.07.2020 15:00:00 26,3 5,8 33,9 22,6 19,0 9 5 30 16 N 1018,3 60 60 0,0
13.07.2020 14:00:00 25,9 4,9 33,4 22,0 19,0 13 7 35 19 N 1018,9 60 60 0,0
13.07.2020 13:00:00 25,6 7,7 32,8 21,4 19,0 14 8 32 17 NNO 1019,2 55 60 0,0
13.07.2020 12:00:00 24,0 8,0 31,2 21,0 19,0 11 6 23 12 NW 1019,9 60 60 0,0
13.07.2020 11:00:00 22,0 8,1 30,3 20,8 19,0 11 6 19 10 WNW 1020,4 60 60 0,0
13.07.2020 10:00:00 21,3 7,9 27,5 20,8 19,0 4 2 12 6 N 1020,7 37 60 0,0
13.07.2020 09:00:00 19,6 8,3 22,1 20,9 19,0 3 2 9 5 ZO 1021,2 39 60 0,0
13.07.2020 08:00:00 15,9 9,1 11,5 21,3 19,0 2 1 5 3 O 1021,6 51 56 0,0
13.07.2020 07:00:00 11,1 7,2 5,6 21,6 19,0 2 1 5 3 NO 1022,2 48 22 0,0
13.07.2020 06:00:00 9,5 6,2 5,1 22,0 19,0 3 2 5 3 ZZO 1022,3 60 0 0,0
13.07.2020 05:00:00 10,3 6,8 6,3 22,4 19,0 3 2 6 4 NO 1022,0 60 0 0,0
13.07.2020 04:00:00 11,1 6,6 6,4 22,8 19,0 3 2 6 4 Z 1022,0 60 0 0,0
13.07.2020 03:00:00 11,6 6,3 6,4 23,2 19,0 0 0 6 4 N 1021,9 60 0 0,0
13.07.2020 02:00:00 12,9 6,7 6,6 23,6 19,0 4 2 11 6 ZO 1021,8 60 0 0,0
13.07.2020 01:00:00 13,7 7,7 8,0 24,0 19,0 2 1 7 4 Z 1021,6 60 0 0,0
13.07.2020 00:00:00 15,4 7,2 9,2 24,4 19,0 4 2 8 4 ZW 1021,6 60 0 0,0
12.07.2020 23:00:00 18,9 7,0 14,2 24,8 19,0 8 5 13 7 NW 1020,5 60 0 0,0
12.07.2020 22:00:00 20,8 6,0 16,1 25,0 19,0 6 3 16 9 N 1019,6 15 0 0,0
12.07.2020 21:00:00 23,6 6,4 20,8 25,1 19,0 12 7 21 11 NO 1018,5 59 41 0,0
12.07.2020 20:00:00 26,0 5,5 25,5 25,0 19,0 15 8 22 12 NO 1018,1 30 60 0,0
12.07.2020 19:00:00 27,2 6,0 31,0 24,7 19,0 16 9 28 15 NNW 1017,9 60 60 0,0
12.07.2020 18:00:00 27,6 6,9 33,2 24,3 19,0 15 8 32 18 NW 1018,2 39 60 0,0
12.07.2020 17:00:00 27,1 8,5 33,6 23,6 19,0 11 6 28 15 NNW 1018,7 60 60 0,0
12.07.2020 16:00:00 26,9 8,8 33,4 22,9 19,0 11 6 34 18 WNW 1019,4 52 60 0,0
12.07.2020 15:00:00 26,0 9,3 32,8 22,2 19,0 15 8 36 19 NW 1020,1 44 60 0,0
12.07.2020 14:00:00 25,3 10,0 32,3 21,5 19,0 11 6 29 16 NW 1020,3 48 60 0,0
12.07.2020 13:00:00 23,4 8,7 30,7 20,9 19,0 10 6 23 13 NNW 1020,8 38 60 0,0
12.07.2020 12:00:00 21,2 8,8 30,5 20,5 19,0 10 5 19 10 NO 1021,5 45 60 0,0
12.07.2020 11:00:00 19,3 8,0 26,4 20,2 19,0 8 4 16 9 N 1022,0 34 60 0,0
12.07.2020 10:00:00 17,5 7,5 25,6 20,3 19,0 6 4 16 8 WNW 1022,6 51 60 0,0
12.07.2020 09:00:00 16,5 7,2 22,0 20,5 19,0 4 2 12 7 N 1022,8 49 60 0,0
12.07.2020 08:00:00 15,0 6,8 10,1 20,8 19,0 2 1 5 3 ZO 1022,7 43 60 0,0
12.07.2020 07:00:00 9,2 7,1 3,0 21,2 19,0 4 2 10 6 ZZW 1023,2 29 29 0,0
12.07.2020 06:00:00 8,3 6,3 3,0 21,6 19,0 4 2 6 4 ZZO 1023,1 60 0 0,0
12.07.2020 05:00:00 9,1 5,5 3,3 22,0 18,9 4 2 8 4 ZZO 1022,9 60 0 0,0
12.07.2020 04:00:00 9,3 6,4 4,3 22,4 19,0 2 1 7 4 ZZO 1023,0 60 0 0,0
12.07.2020 03:00:00 9,6 6,3 4,5 22,9 19,0 0 0 5 3 N 1023,2 60 0 0,0
12.07.2020 02:00:00 11,4 6,7 6,8 23,3 18,9 3 1 10 5 NNO 1022,9 60 0 0,0
12.07.2020 01:00:00 13,0 6,8 6,7 23,7 19,0 3 1 7 4 ZO 1022,8 60 0 0,0
12.07.2020 00:00:00 15,9 6,0 11,7 24,1 18,9 5 3 13 7 NNW 1022,3 60 0 0,0
11.07.2020 23:00:00 17,9 5,5 12,9 24,5 18,9 6 4 15 8 N 1022,1 60 0 0,0
11.07.2020 22:00:00 19,4 6,1 15,2 24,8 18,9 10 5 21 12 N 1021,4 60 0 0,0
11.07.2020 21:00:00 20,6 6,5 18,0 25,0 18,9 15 8 44 24 NNO 1020,6 54 41 0,0
11.07.2020 20:00:00 23,3 5,2 22,8 25,0 18,9 17 9 35 19 N 1019,8 37 60 0,0
11.07.2020 19:00:00 24,2 6,5 28,2 24,8 18,9 19 10 39 21 N 1019,6 35 60 0,0
11.07.2020 18:00:00 24,4 6,6 29,9 24,4 18,9 22 12 41 22 N 1019,7 31 60 0,0
11.07.2020 17:00:00 24,9 8,4 30,4 24,0 18,9 18 10 39 21 NNW 1019,7 32 58 0,0
11.07.2020 16:00:00 24,3 8,7 27,9 23,5 18,9 16 9 39 21 NNW 1020,1 33 51 0,0
11.07.2020 15:00:00 23,1 8,4 25,5 23,1 18,9 19 10 42 23 N 1020,3 38 48 0,0
11.07.2020 14:00:00 23,1 9,5 25,8 22,8 18,9 18 10 41 22 N 1020,7 57 37 0,0
11.07.2020 13:00:00 21,8 10,3 24,1 22,5 18,9 17 9 32 18 NNW 1021,1 51 33 0,0
11.07.2020 12:00:00 20,8 10,6 22,7 22,3 18,8 17 9 35 19 N 1021,3 46 45 0,0
11.07.2020 11:00:00 20,5 11,1 23,0 22,3 18,9 16 8 30 16 N 1021,2 17 43 0,0
11.07.2020 10:00:00 19,0 12,5 19,2 22,4 18,9 13 7 27 15 NNW 1021,5 26 49 0,0
11.07.2020 09:00:00 16,9 12,4 16,3 22,6 18,8 13 7 29 16 NW 1021,8 55 1 0,0
11.07.2020 08:00:00 16,0 12,2 15,8 22,9 18,8 14 7 27 15 N 1021,6 53 0 0,0
11.07.2020 07:00:00 16,2 12,2 15,9 23,2 18,8 14 8 23 13 NW 1021,0 60 0 0,0
11.07.2020 06:00:00 16,8 11,7 16,1 23,5 18,8 10 6 22 12 N 1020,3 60 0 0,0
11.07.2020 05:00:00 17,0 12,5 16,3 23,8 18,8 6 3 12 7 NNW 1019,9 60 0 0,0
11.07.2020 04:00:00 17,3 12,6 16,4 24,1 18,8 8 4 19 10 N 1019,8 60 0 0,0
11.07.2020 03:00:00 17,7 12,6 15,8 24,5 18,8 14 8 28 15 N 1020,0 60 0 0,0
11.07.2020 02:00:00 18,4 13,3 15,9 24,8 18,8 9 5 24 13 N 1019,8 60 0 0,0
11.07.2020 01:00:00 18,7 14,6 16,6 25,1 18,8 8 4 17 9 N 1019,4 60 0 0,0
11.07.2020 00:00:00 18,4 15,8 17,1 25,5 18,8 3 2 11 6 NNO 1019,1 60 0 0,0
10.07.2020 23:00:00 18,1 15,5 16,5 25,9 18,8 5 3 18 10 NO 1018,8 35 0 1,0
10.07.2020 22:00:00 18,3 15,5 16,8 26,1 18,8 5 3 35 19 ONO 1018,4 16 0 1,8
10.07.2020 21:00:00 21,3 14,2 19,5 26,3 18,8 21 11 42 23 N 1017,0 13 0 0,2
10.07.2020 20:00:00 24,0 14,1 23,9 26,3 18,8 19 10 43 23 N 1015,3 59 0 0,0
10.07.2020 19:00:00 26,4 14,5 29,0 26,1 18,8 21 12 49 26 N 1014,0 46 52 0,0
10.07.2020 18:00:00 28,5 15,1 29,4 25,8 18,8 20 11 34 19 N 1012,9 59 38 0,0
10.07.2020 17:00:00 29,0 15,2 31,9 25,3 18,8 18 10 36 19 N 1012,8 31 55 0,0
10.07.2020 16:00:00 28,9 15,4 29,7 24,8 18,8 16 9 33 18 N 1013,2 31 42 0,0
10.07.2020 15:00:00 29,4 14,8 34,8 24,2 18,8 22 12 31 17 N 1013,4 20 46 0,0
10.07.2020 14:00:00 29,5 15,6 33,3 23,5 18,7 8 4 23 12 NNW 1013,8 42 49 0,0
10.07.2020 13:00:00 28,4 15,3 34,0 23,0 18,7 10 6 21 12 NNO 1014,3 20 52 0,0
10.07.2020 12:00:00 27,9 15,5 36,4 22,6 18,7 11 6 20 11 N 1014,6 20 60 0,0
10.07.2020 11:00:00 26,3 14,7 33,6 22,4 18,7 7 4 18 10 NNO 1015,0 34 60 0,0
10.07.2020 10:00:00 24,8 14,3 31,0 22,4 18,7 5 3 13 7 NW 1015,5 53 60 0,0
10.07.2020 09:00:00 23,9 14,3 23,7 22,5 18,7 3 2 10 5 ZO 1015,4 28 57 0,0
10.07.2020 08:00:00 20,8 14,2 18,6 22,7 18,7 6 3 12 6 Z 1015,8 39 51 0,0
10.07.2020 07:00:00 18,8 13,2 14,3 23,1 18,7 4 2 10 6 ZZW 1016,1 40 22 0,0
10.07.2020 06:00:00 16,8 13,3 13,1 23,4 18,7 7 4 16 8 Z 1016,1 54 0 0,0
10.07.2020 05:00:00 16,9 13,0 13,5 23,7 18,7 4 2 10 6 N 1015,8 60 0 0,0
10.07.2020 04:00:00 16,6 13,1 13,6 24,0 18,7 3 2 8 4 OZO 1015,8 58 0 0,0
10.07.2020 03:00:00 18,2 13,3 13,7 24,4 18,7 5 3 8 4 Z 1015,9 60 0 0,0
10.07.2020 02:00:00 19,1 13,7 15,2 24,8 18,7 3 2 6 4 ZZW 1016,0 53 0 0,0
10.07.2020 01:00:00 19,8 13,9 16,1 25,1 18,7 7 4 8 5 Z 1015,9 18 0 0,0
10.07.2020 00:00:00 21,6 14,5 17,2 25,3 18,7 4 2 10 5 OZO 1015,2 54 0 0,0
09.07.2020 23:00:00 23,9 14,6 18,6 25,7 18,7 3 2 10 6 ZZO 1014,5 55 0 0,0
09.07.2020 22:00:00 24,3 15,2 19,3 25,8 18,7 4 2 7 4 Z 1013,6 15 0 0,0
09.07.2020 21:00:00 28,7 13,4 24,6 25,9 18,7 5 3 18 10 NO 1012,6 60 17 0,0
09.07.2020 20:00:00 30,9 12,8 29,0 25,8 18,7 11 6 22 12 N 1012,2 55 26 0,0
09.07.2020 19:00:00 32,5 12,2 33,9 25,6 18,7 9 5 26 14 N 1011,8 40 60 0,0
09.07.2020 18:00:00 33,2 11,1 36,1 25,1 18,7 15 8 28 15 N 1011,9 20 60 0,0
09.07.2020 17:00:00 33,7 9,7 38,2 24,4 18,7 10 5 23 12 Z 1012,4 40 60 0,0
09.07.2020 16:00:00 33,4 8,8 39,7 23,7 18,7 4 2 21 11 WNW 1013,0 43 60 0,0
09.07.2020 15:00:00 32,2 9,1 39,0 23,0 18,7 7 4 21 12 NO 1013,7 36 60 0,0
09.07.2020 14:00:00 31,4 9,0 38,0 22,2 18,7 6 3 19 10 ZO 1014,6 20 60 0,0
09.07.2020 13:00:00 30,3 9,2 37,9 21,7 18,7 5 3 22 12 O 1015,1 53 60 0,0
09.07.2020 12:00:00 28,4 10,6 35,3 21,2 18,6 6 4 16 9 OZO 1015,8 20 60 0,0
09.07.2020 11:00:00 26,1 12,9 33,0 20,9 18,7 6 3 12 6 NW 1016,6 44 60 0,0
09.07.2020 10:00:00 24,9 11,5 28,4 20,9 18,7 3 1 12 6 OZO 1017,0 43 60 0,0
09.07.2020 09:00:00 21,3 11,0 23,7 21,0 18,7 6 3 15 8 Z 1017,5 55 60 0,0
09.07.2020 08:00:00 18,7 10,8 15,4 21,3 18,7 8 4 16 9 ZZO 1018,2 31 60 0,0
09.07.2020 07:00:00 15,0 10,6 8,7 21,6 18,6 8 5 13 7 ZZO 1018,8 38 31 0,0
09.07.2020 06:00:00 13,2 9,8 8,0 22,0 18,6 8 4 10 5 Z 1019,0 59 0 0,0
09.07.2020 05:00:00 12,8 9,8 8,4 22,3 18,6 4 2 7 4 NNO 1018,8 60 0 0,0
09.07.2020 04:00:00 13,1 9,3 8,1 22,7 18,6 7 4 9 5 Z 1019,0 60 0 0,0
09.07.2020 03:00:00 13,6 10,0 8,8 23,1 18,7 3 1 7 4 ZZO 1019,0 59 0 0,0
09.07.2020 02:00:00 14,7 10,1 9,3 23,5 18,7 5 3 8 4 Z 1018,9 15 0 0,0
09.07.2020 01:00:00 15,5 10,7 9,9 23,9 18,7 3 2 8 5 ZO 1019,0 60 0 0,0
09.07.2020 00:00:00 17,5 10,8 11,6 24,2 18,6 5 3 7 4 Z 1018,5 60 0 0,0
08.07.2020 23:00:00 19,5 10,8 14,7 24,5 18,7 5 3 9 5 ZZO 1017,7 51 0 0,0
08.07.2020 22:00:00 22,4 9,9 15,9 24,7 18,7 3 1 15 8 NO 1016,8 10 0 0,0
08.07.2020 21:00:00 25,8 9,2 22,7 24,8 18,7 7 4 18 10 N 1015,9 51 39 0,0
08.07.2020 20:00:00 27,9 8,7 26,0 24,7 18,7 9 5 17 9 N 1015,5 37 60 0,0
08.07.2020 19:00:00 28,3 10,5 32,7 24,4 18,7 7 4 29 16 N 1015,6 48 60 0,0
08.07.2020 18:00:00 28,7 7,8 34,5 23,9 18,7 3 2 19 11 NNO 1016,0 41 60 0,0
08.07.2020 17:00:00 27,9 7,2 34,9 23,3 18,7 7 4 23 12 NO 1016,7 60 60 0,0
08.07.2020 16:00:00 27,4 8,3 34,9 22,6 18,7 6 4 21 11 NNO 1017,0 19 60 0,0
08.07.2020 15:00:00 26,9 5,8 34,4 21,9 18,7 9 5 22 12 WNW 1017,3 20 60 0,0
08.07.2020 14:00:00 26,0 8,0 33,8 21,2 18,6 11 6 21 11 WNW 1017,7 47 60 0,0
08.07.2020 13:00:00 24,3 8,3 33,3 20,6 18,7 10 5 22 12 N 1018,3 37 60 0,0
08.07.2020 12:00:00 23,4 7,9 31,1 20,1 18,7 9 5 20 11 NW 1018,6 20 60 0,0
08.07.2020 11:00:00 21,3 8,2 26,9 19,9 18,7 5 3 17 9 NNW 1018,9 36 60 0,0
08.07.2020 10:00:00 19,7 8,7 26,4 19,8 18,7 4 2 9 5 NW 1019,2 20 58 0,0
08.07.2020 09:00:00 18,5 9,3 21,0 20,0 18,7 2 1 10 5 Z 1019,5 20 60 0,0
08.07.2020 08:00:00 15,0 9,1 12,1 20,2 18,7 3 2 9 5 ONO 1019,8 20 55 0,0
08.07.2020 07:00:00 10,7 7,4 4,6 20,6 18,7 0 0 6 3 N 1020,4 56 25 0,0
08.07.2020 06:00:00 8,6 5,7 4,0 21,0 18,7 4 2 5 3 ZZO 1020,3 56 0 0,0
08.07.2020 05:00:00 8,8 6,8 4,6 21,4 18,7 0 0 7 4 N 1020,3 55 0 0,0
08.07.2020 04:00:00 8,9 6,5 4,1 21,8 18,7 6 3 8 4 Z 1020,4 58 0 0,0

tt = temperatuur
td = dauwpunt
tt 5cm = temperatuur 5cm
tt -20cm = temperatuur -20cm
tt -100cm = temperatuur -100cm
ff = windsnelheid
fx = windstoten
dd = windrichting
ppp = luchtdruk
vv = zicht
sd = Zonneschijnduur
rr = neerslag

Weerstations in de omgeving